www.pogodaiklimat.ru

Погода и климат >> Архив погоды >> Норвегия >> Маяк Fruholmen


ПОГОДА на Маяке Fruholmen

  • Прогноз погоды на Маяке Fruholmen
  • Монитор погоды на Маяке Fruholmen

АРХИВ ПОГОДЫ на Маяке Fruholmen

Время (UTC), дата Ветер
(напр.,м/с)
 
Видим.   Явления Облачность Т
(С)
Тd
(С)
f
(%)
Тe
(С)
Тes
(С)
Комфортность P
(гПа)
Po
(гПа)
Тmin
(С)
Tmax
(С)
R
(мм)
R24
(мм)
S
(см)
04 19.03 СВ 2-3
{3}
н/о н/о -0.7 -5.0 73 -4 -4 1009.8 1008.0
05 19.03 ЮВ 3-3
{3}
н/о н/о -0.9 -5.0 74 -6 -6 1010.2 1008.4
06 19.03 ЮВ 3-3
{4}
н/о н/о -1.4 -4.6 79 -6 -6 1010.5 1008.7 -2.2 -0.6
07 19.03 ЮВ 5-6
{6}
н/о н/о -1.2 -4.1 81 -7 -7 1010.1 1008.3
08 19.03 ЮВ 4-5
{6}
н/о н/о -0.9 -3.8 81 -6 -6 1010.1 1008.3
09 19.03 Ю 6-8
{8}
н/о н/о +0.6 -3.8 72 -6 -6 1010.1 1008.3
10 19.03 ЮЗ 7-9
{11}
н/о н/о +1.4 -6.4 56 -5 -5 1010.2 1008.4
11 19.03 З 5-6
{8}
н/о н/о +1.8 -6.4 54 -3 -3 1010.3 1008.5
12 19.03 ЮЗ 4-5
{11}
н/о н/о +1.9 -5.4 58 -3 -3 1010.4 1008.6
13 19.03 ЮЗ 7-11
{13}
н/о н/о -0.1 -2.0 87 -7 -7 1010.5 1008.7
14 19.03 Ю 6-8
{10}
н/о н/о +1.2 -3.2 72 -5 -5 1010.2 1008.4
15 19.03 Ю 7-8
{8}
н/о н/о +1.2 -4.0 68 -5 -5 1010.0 1008.2
16 19.03 Ю 8-10
{10}
н/о н/о +1.2 -3.1 73 -6 -6 1009.5 1007.7
17 19.03 Ю 4-6
{10}
н/о н/о +0.4 -2.7 80 -5 -5 1009.4 1007.6
18 19.03 ЮВ 7-9
{13}
н/о н/о +0.2 -2.7 81 -7 -7 1009.0 1007.2 -1.4 +2.0
19 19.03 ЮВ 8-10
{11}
н/о н/о +0.2 -3.2 78 -7 -7 1008.3 1006.5
20 19.03 ЮВ 9-12
{12}
н/о н/о +0.6 -4.1 71 -7 -7 1007.4 1005.6
21 19.03 ЮВ 10-12
{12}
н/о н/о +0.3 -4.4 71 -8 -8 1006.5 1004.7
22 19.03 ЮВ 12-14
{14}
н/о н/о +0.4 -4.0 72 -8 -8 1005.6 1003.8
23 19.03 ЮВ 10-13
{13}
н/о н/о +1.1 -4.4 67 -6 -6 1004.9 1003.1
00 20.03 ЮВ 8-9
{14}
н/о н/о +0.8 -4.9 66 -6 -6 1004.0 1002.2
01 20.03 ЮВ 8-10
{11}
н/о н/о +1.2 -4.6 65 -6 -6 1002.4 1000.6
02 20.03 ЮВ 12-15
{15}
н/о н/о +1.1 -5.7 60 -7 -7 1001.0 999.2
03 20.03 ЮВ 12-15
{16}
н/о н/о +1.1 -5.5 61 -7 -7 999.9 998.1
04 20.03 ЮВ 14-16
{16}
н/о н/о +0.7 -6.2 60 -8 -8 998.2 996.4
05 20.03 ЮВ 13-17
{17}
н/о н/о +0.8 -6.5 58 -7 -7 997.0 995.2
06 20.03 ЮВ 12-16
{17}
н/о н/о +0.1 -6.7 60 -8 -8 996.3 994.5 -0.1 +1.8
07 20.03 ЮВ 12-16
{16}
н/о н/о 0.0 -5.7 65 -8 -8 995.9 994.1
08 20.03 Ю 8-11
{15}
н/о н/о +2.4 -6.5 52 -4 -4 995.5 993.8
09 20.03 ЮВ 6-8
{11}
н/о н/о +1.0 -5.3 63 -5 -5 996.3 994.5
10 20.03 Ю 4-6
{10}
н/о н/о +1.6 -5.4 60 -3 -3 996.7 994.9
11 20.03 Ю 3-6
{8}
н/о н/о +1.1 -4.8 65 -3 -3 997.1 995.3
12 20.03 Ю 2-5
{16}
н/о н/о +0.8 -2.2 80 -3 -3 997.3 995.5
13 20.03 ЮВ 3-6
{7}
н/о н/о +1.1 -1.3 84 -3 -3 997.4 995.6
14 20.03 ЮВ 5-8
{9}
н/о н/о +1.0 -1.1 86 -5 -5 997.5 995.7
15 20.03 Ю 6-9
{10}
н/о н/о +2.3 -1.2 78 -4 -4 997.3 995.5
16 20.03 Ю 8-14
{14}
н/о н/о +2.7 -1.5 74 -4 -4 997.2 995.5
17 20.03 Ю 9-11
{13}
н/о н/о +2.8 -0.9 77 -4 -4 997.3 995.6
18 20.03 ЮЗ 13-15
{17}
н/о н/о +3.8 0.0 76 -4 -4 997.2 995.5 0.0 +3.9
19 20.03 ЮЗ 14-16
{17}
н/о н/о +3.4 +0.2 80 -5 -5 997.0 995.3
20 20.03 ЮЗ 10-13
{16}
н/о н/о +3.8 +0.4 78 -3 -3 997.3 995.6
21 20.03 ЮЗ 12-16
{16}
н/о н/о +3.6 +0.5 80 -4 -4 997.4 995.7
22 20.03 ЮЗ 10-13
{15}
н/о н/о +3.6 +0.6 81 -3 -3 997.6 995.9
23 20.03 ЮЗ 8-9
{13}
н/о н/о +3.5 +0.6 81 -3 -3 997.9 996.2
00 21.03 Ю 4-6
{17}
н/о н/о +3.6 -2.7 63 -1 -1 998.0 996.3
01 21.03 Ю 4-7
{8}
н/о н/о +4.1 -3.2 59 0 0 997.7 996.0
02 21.03 Ю 7-10
{11}
н/о н/о +3.8 -2.9 62 -2 -2 997.4 995.7
03 21.03 Ю 8-11
{12}
н/о н/о +3.3 -2.1 68 -3 -3 997.4 995.7
04 21.03 Ю 7-11
{13}
н/о н/о +3.1 -1.4 72 -3 -3 996.9 995.2
05 21.03 Ю 9-12
{15}
н/о н/о +3.3 -0.9 74 -3 -3 996.9 995.2
06 21.03 Ю 10-14
{15}
н/о н/о +2.2 -1.0 79 -5 -5 996.1 994.4 +2.1 +4.5
07 21.03 Ю 11-14
{14}
н/о н/о +3.2 -1.7 70 -4 -4 995.7 994.0
08 21.03 Ю 11-18
{18}
н/о н/о +2.9 -2.2 69 -4 -4 995.5 993.8
09 21.03 Ю 11-15
{19}
н/о н/о +3.0 -2.5 67 -4 -4 995.2 993.5
10 21.03 ЮЗ 11-14
{15}
н/о н/о +3.1 -3.0 64 -4 -4 995.5 993.8
11 21.03 Ю 9-11
{13}
н/о н/о +3.0 -3.7 61 -3 -3 995.4 993.7
12 21.03 ЮЗ 11-13
{19}
н/о н/о +3.2 -4.0 59 -4 -4 994.7 993.0
13 21.03 Ю 8-11
{12}
н/о н/о +3.1 -3.2 63 -3 -3 995.0 993.3
14 21.03 Ю 5-6
{11}
н/о н/о +3.2 -3.7 61 -2 -2 994.9 993.2
15 21.03 Ю 4-6
{6}
н/о н/о +3.2 -4.6 57 -1 -1 994.7 993.0
17 21.03 ЮВ 4-5
{5}
н/о н/о +1.3 -4.6 65 -3 -3 995.3 993.5
18 21.03 Ю 4-7
{12}
н/о н/о +2.4 -5.1 58 -2 -2 996.1 994.4 +1.0 +3.3
19 21.03 Ю 5-8
{8}
н/о н/о +2.6 -5.2 56 -2 -2 996.7 995.0
20 21.03 ЮЗ 11-14
{20}
н/о н/о +1.9 -0.4 85 -6 -6 997.4 995.6
21 21.03 З 19-24
{30}
н/о н/о +1.9 -2.2 74 -7 -7 997.5 995.7
22 21.03 ЮЗ 19-25
{29}
н/о н/о +2.1 -4.8 60 -7 -7 999.3 997.5
23 21.03 З 19-23
{24}
н/о н/о +2.1 -6.9 51 -7 -7 1000.6 998.8
01 22.03 ЮЗ 16-20
{21}
н/о н/о +2.1 -3.6 66 -6 -6 1002.0 1000.2
02 22.03 ЮЗ 16-23
{30}
н/о н/о +1.8 -2.6 73 -7 -7 1002.1 1000.3
03 22.03 ЮЗ 17-23
{24}
н/о н/о +2.2 -2.1 73 -7 -7 1002.2 1000.4
04 22.03 ЮЗ 14-20
{29}
н/о н/о +1.7 -1.6 79 -7 -7 1002.3 1000.5
05 22.03 ЮЗ 20-26
{28}
н/о н/о +0.7 -1.9 83 -10 -10 1002.4 1000.6
06 22.03 ЮЗ 16-22
{30}
н/о н/о +1.8 -1.9 76 -7 -7 1002.9 1001.1 -0.1 +2.9
07 22.03 ЮЗ 20-29
{29}
н/о н/о +2.6 -5.8 54 -6 -6 1003.1 1001.3
08 22.03 ЮЗ 19-25
{27}
н/о н/о +1.3 -4.5 65 -8 -8 1003.2 1001.4
09 22.03 ЮЗ 20-25
{34}
н/о н/о +0.1 -4.2 73 -10 -10 1004.2 1002.4
10 22.03 ЮЗ 19-25
{26}
н/о н/о +1.1 -4.1 68 -9 -9 1004.7 1002.9
11 22.03 ЮЗ 17-22
{28}
н/о н/о +1.0 -3.9 70 -8 -8 1004.8 1003.0
12 22.03 ЮЗ 20-28
{34}
н/о н/о +2.0 -6.1 55 -7 -7 1003.9 1002.1
13 22.03 ЮЗ 17-22
{27}
н/о н/о +1.0 -2.7 76 -8 -8 1004.7 1002.9
14 22.03 ЮЗ 17-24
{26}
н/о н/о +2.3 -4.8 59 -6 -6 1004.2 1002.4
15 22.03 ЮЗ 19-24
{28}
н/о н/о +2.4 -5.0 58 -6 -6 1004.0 1002.2
16 22.03 ЮЗ 17-21
{23}
н/о н/о +1.3 -2.2 77 -8 -8 1003.1 1001.3
17 22.03 ЮЗ 13-18
{19}
н/о н/о +1.3 -1.5 82 -7 -7 1002.6 1000.8
18 22.03 Ю 8-12
{28}
н/о н/о +0.9 -1.6 83 -6 -6 1002.4 1000.6 -0.9 +2.6
19 22.03 Ю 7-11
{13}
н/о н/о +2.2 -4.9 59 -4 -4 1000.6 998.8
20 22.03 ЮВ 6-7
{11}
н/о н/о +1.7 -4.9 62 -4 -4 998.8 997.0
21 22.03 ЮВ 9-12
{12}
н/о н/о +0.7 -5.0 66 -7 -7 996.8 995.0
22 22.03 ЮВ 7-10
{13}
н/о н/о +1.1 -4.5 66 -5 -5 994.4 992.6
23 22.03 ЮВ 5-7
{11}
н/о н/о +1.4 -3.7 69 -4 -4 992.2 990.5
00 23.03 ЮВ 8-11
{13}
н/о н/о +0.9 -3.6 72 -6 -6 990.2 988.5
01 23.03 Ю 6-9
{11}
н/о н/о +2.2 -3.6 65 -3 -3 989.0 987.3
02 23.03 Ю 3-6
{8}
н/о н/о +1.2 -1.7 81 -3 -3 988.0 986.3
03 23.03 ЮВ 5-8
{8}
н/о н/о +2.4 -0.6 81 -3 -3 986.7 985.0
04 23.03 Ю 7-12
{14}
н/о н/о +5.0 -1.0 65 -0 -0 985.9 984.2
05 23.03 Ю 9-13
{13}
н/о н/о +5.8 -1.6 59 0 0 984.5 982.8
06 23.03 Ю 6-11
{14}
н/о н/о +5.6 -2.3 57 +1 +1 984.1 982.4 +0.7 +5.9
07 23.03 Ю 6-9
{10}
н/о н/о +5.8 -2.9 54 +2 +2 983.3 981.6
08 23.03 ЮВ 8-11
{11}
н/о н/о +3.7 -2.2 65 -2 -2 982.5 980.8
09 23.03 ЮВ 6-8
{11}
н/о н/о +3.7 -1.7 68 -2 -2 981.8 980.1
10 23.03 ЮВ 9-11
{11}
н/о н/о +3.5 -2.2 66 -3 -3 981.2 979.5
11 23.03 Ю 5-7
{16}
н/о н/о +3.6 -0.1 77 -1 -1 981.3 979.6
12 23.03 ЮЗ 6-7
{16}
н/о н/о +3.5 +0.3 80 -2 -2 980.5 978.8
13 23.03 Ю 5-6
{9}
н/о н/о +3.2 -0.1 79 -2 -2 980.0 978.3
14 23.03 Ю 8-11
{13}
н/о н/о +3.5 -0.4 76 -3 -3 979.9 978.2
15 23.03 Ю 6-7
{9}
н/о н/о +3.6 -0.4 75 -2 -2 979.3 977.6
16 23.03 Ю 5-8
{9}
н/о н/о +3.9 -1.9 66 -1 -1 978.4 976.7
17 23.03 Ю 3-5
{6}
н/о н/о +3.8 -2.5 63 0 0 978.2 976.5
18 23.03 ЮВ 5-7
{13}
н/о н/о +2.8 -1.3 74 -2 -2 978.0 976.3 +2.4 +6.0
19 23.03 ЮВ 6-8
{9}
н/о н/о +2.3 -1.5 76 -4 -4 977.5 975.8
20 23.03 ЮВ 7-9
{9}
н/о н/о +1.8 -1.5 79 -5 -5 976.7 975.0
21 23.03 ЮВ 5-7
{10}
н/о н/о +1.5 -1.7 79 -4 -4 976.2 974.5
22 23.03 ЮВ 8-9
{9}
н/о н/о +1.9 -2.8 71 -5 -5 975.8 974.1
23 23.03 В 8-10
{11}
н/о н/о +2.3 -3.7 65 -4 -4 975.2 973.5
00 24.03 В 8-10
{11}
н/о н/о +1.7 -3.5 68 -5 -5 975.3 973.6
01 24.03 В 8-9
{10}
н/о н/о +1.8 -4.3 64 -5 -5 975.8 974.1
02 24.03 В 1-3
{11}
н/о н/о +0.7 -4.6 68 -1 -1 976.6 974.9
03 24.03 ЮВ 2-2
{5}
н/о н/о +0.6 -4.3 70 -3 -3 977.2 975.5
04 24.03 ЮВ 2-3
{4}
н/о н/о +0.4 -4.2 71 -3 -3 977.9 976.2
05 24.03 штиль 0-1
{2}
н/о н/о +1.2 -4.4 66 +1 +1 978.8 977.1
06 24.03 ЮВ 1-1
{11}
н/о н/о +2.0 -4.1 64 +1 +1 979.6 977.9 +0.4 +2.9
07 24.03 Ю 1-1
{3}
н/о н/о +2.0 -4.8 61 +1 +1 980.7 979.0
08 24.03 ЮЗ 4-5
{5}
н/о н/о +2.2 -3.5 66 -2 -2 981.4 979.7
09 24.03 Ю 5-6
{6}
н/о н/о +2.3 -2.8 69 -3 -3 982.2 980.5
10 24.03 ЮЗ 7-8
{8}
н/о н/о +2.6 -2.1 71 -3 -3 983.4 981.7
11 24.03 ЮЗ 5-6
{8}
н/о н/о +3.3 -1.1 73 -2 -2 984.4 982.7
12 24.03 З 10-13
{13}
н/о н/о +1.5 -1.0 83 -6 -6 985.1 983.4
13 24.03 СЗ 12-13
{13}
н/о н/о +2.1 0.0 86 -6 -6 986.7 985.0
14 24.03 СЗ 14-16
{16}
н/о н/о +1.6 -1.3 81 -7 -7 987.9 986.2
15 24.03 СЗ 14-16
{16}
н/о н/о +1.0 -2.0 80 -8 -8 989.6 987.9
16 24.03 СЗ 14-16
{17}
н/о н/о +0.7 -2.7 78 -8 -8 991.3 989.5
17 24.03 СЗ 14-17
{17}
н/о н/о -0.2 -2.9 82 -10 -10 993.1 991.3
18 24.03 СЗ 15-18
{18}
н/о н/о -0.5 -4.6 74 -10 -10 994.5 992.7 -0.7 +3.6
19 24.03 СЗ 14-17
{20}
н/о н/о -1.4 -4.7 78 -11 -11 995.6 993.8
20 24.03 СЗ 16-19
{19}
н/о н/о -1.3 -5.3 74 -11 -11 996.7 994.9
21 24.03 СЗ 14-18
{18}
н/о н/о -1.5 -8.3 60 -11 -11 998.0 996.2
22 24.03 СЗ 12-15
{16}
н/о н/о -1.2 -8.8 56 -10 -10 999.0 997.2
23 24.03 СЗ 9-13
{14}
н/о н/о -0.8 -10.1 49 -8 -8 999.5 997.7
00 25.03 СЗ 9-13
{20}
н/о н/о -0.5 -8.8 53 -8 -8 999.7 997.9
01 25.03 СЗ 8-9
{14}
н/о н/о -0.2 -9.2 51 -7 -7 1000.3 998.5
02 25.03 З 6-8
{11}
н/о н/о 0.0 -7.9 55 -6 -6 1000.5 998.7
03 25.03 З 4-6
{14}
н/о н/о -1.7 -3.8 86 -8 -8 1001.3 999.5
04 25.03 З 3-4
{4}
н/о н/о -1.0 -3.5 83 -6 -6 1001.3 999.5
05 25.03 З 7-9
{12}
н/о н/о -0.3 -4.4 74 -7 -7 1000.9 999.1
06 25.03 З 15-18
{18}
н/о н/о -1.0 -3.8 81 -11 -11 999.9 998.1 -2.3 +0.2
07 25.03 ЮЗ 7-10
{14}
н/о н/о 0.0 -3.8 76 -7 -7 1000.7 998.9
08 25.03 ЮЗ 8-11
{15}
н/о н/о +0.2 -4.3 72 -7 -7 1000.6 998.8
09 25.03 ЮЗ 14-19
{19}
н/о н/о -1.4 -3.4 86 -11 -11 1000.2 998.4
10 25.03 ЮЗ 10-14
{17}
н/о н/о -1.1 -2.4 91 -10 -10 1000.8 999.0
11 25.03 ЮЗ 11-15
{17}
н/о н/о -0.9 -2.1 92 -10 -10 1000.5 998.7
12 25.03 З 5-6
{19}
н/о н/о -0.4 -1.7 91 -7 -7 1001.0 999.2
13 25.03 З 9-11
{11}
н/о н/о +0.2 -3.4 77 -7 -7 1000.8 999.0
14 25.03 З 6-8
{12}
н/о н/о +0.6 -4.9 67 -5 -5 1001.1 999.3
15 25.03 СЗ 9-10
{10}
н/о н/о +0.3 -4.2 72 -7 -7 1001.3 999.5
16 25.03 З 5-9
{14}
н/о н/о -0.4 -4.0 77 -6 -6 1001.7 999.9
17 25.03 ЮЗ 7-16
{16}
н/о н/о -0.3 -2.3 86 -7 -7 1001.5 999.7
18 25.03 З 8-9
{16}
н/о н/о 0.0 -5.5 66 -7 -7 1002.1 1000.3 -1.7 +1.1
19 25.03 З 12-14
{14}
н/о н/о 0.0 -4.6 71 -9 -9 1002.6 1000.8
20 25.03 З 10-12
{14}
н/о н/о +0.3 -6.0 63 -7 -7 1002.7 1000.9
21 25.03 З 9-11
{16}
н/о н/о -0.8 -3.6 81 -9 -9 1003.5 1001.7
22 25.03 З 11-13
{15}
н/о н/о -0.3 -4.4 74 -9 -9 1003.9 1002.1
23 25.03 З 7-10
{15}
н/о н/о -0.8 -3.5 82 -8 -8 1004.4 1002.6
00 26.03 З 10-12
{16}
н/о н/о -0.3 -4.4 74 -8 -8 1004.6 1002.8
01 26.03 СЗ 9-12
{16}
н/о н/о -0.4 -3.3 81 -8 -8 1005.1 1003.3
02 26.03 СЗ 9-12
{14}
н/о н/о -1.4 -3.4 86 -10 -10 1005.9 1004.1
03 26.03 СЗ 8-10
{10}
н/о н/о 0.0 -5.5 66 -7 -7 1006.3 1004.5
04 26.03 СЗ 11-14
{16}
н/о н/о -0.4 -5.2 70 -9 -9 1006.9 1005.1
05 26.03 СЗ 9-11
{15}
н/о н/о -0.5 -6.3 65 -8 -8 1007.4 1005.6

 

Местоположение метеостанции Маяк Fruholmen (Норвегия): широта 71.09 долгота 23.98 высота над уровнем моря 13 м.

В архиве по умолчанию представлена погода на Маяке Fruholmen за последнюю неделю. Архивные данные за месяц целиком и за предыдущие месяцы, начиная с января 2011 года, Вы можете получить, выбрав интересующий диапазон дат из раскрывающегося списка и нажав кнопку "Ввод!".


*Определитесь, кто Вы:
робот инопланетянин человек

Внимание! Время в таблицах - всемирное. Для получения местного времени необходимо прибавить поправку, которая равна 1 ч.

Смотрите также архив погоды в соседних городах и на ближайших метеорологических станциях:

Погода в Хаммерфест аэропорту (Норвегия) (51 км)
Погода в Хоннигсвог аэропорту (Норвегия) (73 км)
Погода на Хасвике (Норвегия) (78 км)
Погода в Рогнсундете (Норвегия) (87 км)
Погода в Хасвик аэропорту (Норвегия) (95 км)
Погода в Банаке (Норвегия) (120 км)
Погода в Альта аэропорту (Норвегия) (126 км)
Погода в Мехамн аэропорту (Норвегия) (139 км)
Погода на Маяке Slettnes (Норвегия) (153 км)
Погода в Суоловуопми-Лулит (Норвегия) (169 км)

Пояснения к столбцам:

Ветер - указаны скорость ветра в м/с - средняя за 10 мин, порывы в срок и между сроками (в фигурных скобках) и направление, откуда дует ветер: С - северный, СВ - северо-восточный, В - восточный, ЮВ - юго-восточный, Ю - южный, ЮЗ - юго-западный, З - западный, СЗ - северо-западный.
Видимость - горизонтальная дальность видимости в метрах или километрах. При видимости от 1 до 10 км при отсутствии осадков обычно наблюдается дымка, при ухудшении видимости до 1 км и менее - туман. В сухую погоду видимость может ухудшаться дымом, пылью или мглою.
Явления - указаны атмосферные явления, наблюдавшиеся в срок или в последний час перед сроком; фигурными скобками обозначены явления, наблюдавшиеся между сроками (за 1-3 часа до срока); квадратными скобками обозначены град или гололедные отложения с указанием их диаметра в мм.
Облачность - указаны через наклонную черту общая и нижняя облачность в баллах и высота нижней границы облаков в метрах; квадратными скобками обозначены формы облаков: Ci - перистые, Cs - перисто-слоистые, Cc - перисто-кучевые, Ac - высококучевые, As - высокослоистые, Sc - слоисто-кучевые, Ns - слоисто-дождевые, Cu - кучевые, Cb - кучево-дождевые. Подробнее классификацию облаков см. в Атласе облаков (PDF).
T - Температура воздуха - температура, измеренная на высоте 2 м над землей.
Td - Температура точки росы - температура, при понижении до которой содержащийся в воздухе водяной пар достигнет насыщения.
f - Относительная влажность воздуха - влажноcть воздуха, измеренная на высоте 2 м над землей.
Te - Эффективная температура - температура, которую ощущает одетый по сезону человек в тени. Характеристика душности погоды. При расчете учитывается влияние влажности воздуха и скорости ветра на теплоощущения человека.
Tes - Эффективная температура на солнце - температура, которую ощущает человек, с поправкой на солнечный нагрев. Характеристика знойности погоды. Зависит от высоты солнца над горизонтом, облачности и скорости ветра. Ночью, в пасмурную погоду, а также при ветре 12 м/с и более поправка равна нулю.
P - Атмосферное давление - приведенное к уровню моря атмосферное давление.
Po - Атмосферное давление - измеренное на уровне метеостанции атмосферное давление.
Tmin - Минимальная температура - минимум температуры воздуха на высоте 2 м над землей.
Tmax - Максимальная температура - максимум температуры воздуха на высоте 2 м над землей.
R - Количество осадков - Количество выпавших осадков за период времени, мм. При наведении курсора мыши на число - период времени, за который выпало указанное количество осадков.
R24 - Количество осадков - Количество выпавших осадков за 24 часа, мм.
S - Снежный покров - Высота снежного покрова, см. При наведении курсора мыши на число - состояние снежного покрова и степень покрытия местности в баллах.